Погода в Инзере

Россия / Республика Башкортостан     54°12′55″N   57°33′44″E
темп.,
°C
ветер,
м/с
пор.,
м/с
влажн.,
%
обл.,
%
осадки,
мм/ч
давл.,
гПа
погр.,
м
21 января, чт
чт2123:00−20юз2598100 0.6 1018395
02:00−21юз2498100 0.3 1019311
05:00−22юз1299100 0.6 101964
08:00−23юз129896 0.1 101831
11:00−21ююз139698 0.2 1019186
14:00−18юз2392100 0.1 1018307
17:00−18юз2496100 0.3 1018251
20:00−20юз1298100 0.2 101996
22 января, пт
пт2223:00−20юз2398100 0.4 1019123
02:00−21ююз2398100 0.2 101898
05:00−21ю2498100 0.4 1019143
08:00−20ю2498100 0.2 1018142
11:00−18ююз2495100 0.4 1018256
14:00−15юз2492100 0.3 1018478
17:00−16юз1297100 0.6 1018107
20:00−18ююз2297100 0.3 102053
23 января, сб
сб2323:00−19ююв1297100 0.4 102321
02:00−22ююв119786 0.0 102620
05:00−23юв119460 0.0 102920
08:00−24юв229334 0.0 103220
11:00−21ююв229356 0.0 103378
14:00−17ююв238998 0.0 1033262
17:00−17юв129399 0.0 103223
20:00−17юв2293100 0.0 103238
24 января, вс
вс2423:00−16юв2696100 0.4 1031337
02:00−15ююв2695100 0.9 1030346
05:00−15ююв2596100 1.3 1029260
08:00−14юв2397100 0.4 1029130
11:00−11юв2395100 1.0 1029174
14:00−6ю2494100 0.5 1028279
17:00−4ю1397100 0.9 1028184
20:00−4ю2597100 1.1 1029199
25 января, пн
пн2523:00−1ююз2798100 3.3 1029372
02:00−4ююз2696100 0.4 1029237
05:00−4ююз249799 0.6 1030162
08:00−2юз189898 0.1 1031412
11:00−1зюз279699 0.1 1032641
14:00−1зюз2795100 0.1 1032563
17:00−1юз1597100 0.3 1032334
20:00−3ююз129799 0.1 103266